This is the latest recevied weather packets stored in our database for station/object W3TMB. If no packets are shown the sender has not sent any weather packets the latest 10 day(s).
| Time | Temp. | Humidity | Pressure | Rain* | Wind** | Luminosity | Snow |
|---|---|---|---|---|---|---|---|
| 1778132954 | 8.89° C | 81% | 1010 hPa | 0 mm | - | 0 W/m² | - |
| 1778132650 | 8.89° C | 79% | 1009.9 hPa | 0 mm | - | 0 W/m² | - |
| 1778132348 | 8.89° C | 78% | 1009.8 hPa | 0 mm | - | 0 W/m² | - |
| 1778132045 | 9.44° C | 76% | 1009.9 hPa | 0 mm | - | 0 W/m² | - |
| 1778131744 | 9.44° C | 75% | 1009.6 hPa | 0 mm | - | 0 W/m² | - |
| 1778131441 | 10° C | 75% | 1009.6 hPa | 0 mm | - | 0 W/m² | - |
| 1778131138 | 10° C | 73% | 1009.8 hPa | 0 mm | - | 0 W/m² | - |
| 1778130835 | 10° C | 73% | 1010 hPa | 0 mm | - | 0 W/m² | - |
| 1778130532 | 10° C | 73% | 1009.9 hPa | 0 mm | - | 0 W/m² | - |
| 1778130229 | 10° C | 73% | 1009.9 hPa | 0 mm | - | 0 W/m² | - |
| 1778129926 | 10° C | 74% | 1009.7 hPa | 0 mm | - | 0 W/m² | - |
| 1778129622 | 10° C | 74% | 1009.8 hPa | 0 mm | - | 0 W/m² | - |
| 1778129319 | 10° C | 75% | 1009.4 hPa | 0 mm | - | 0 W/m² | - |
| 1778129015 | 10° C | 76% | 1009.5 hPa | 0 mm | - | 0 W/m² | - |
| 1778128711 | 10° C | 78% | 1009.6 hPa | 0 mm | - | 0 W/m² | - |
| 1778128408 | 10.56° C | 78% | 1009.5 hPa | 0 mm | - | 0 W/m² | - |
| 1778128105 | 10° C | 78% | 1009.5 hPa | 0 mm | - | 0 W/m² | - |
| 1778127800 | 10° C | 81% | 1009.5 hPa | 0 mm | - | 0 W/m² | - |
| 1778127497 | 10° C | 83% | 1009.6 hPa | 0 mm | - | 0 W/m² | - |
| 1778127194 | 10° C | 85% | 1009.5 hPa | 0 mm | - | 0 W/m² | - |
| 1778126892 | 9.44° C | 90% | 1009.6 hPa | 0 mm | - | 0 W/m² | - |
| 1778126587 | 9.44° C | 93% | 1009.6 hPa | 0 mm | - | 0 W/m² | - |
| 1778126283 | 10° C | 94% | 1009.5 hPa | 0 mm | - | 0 W/m² | - |
| 1778125979 | 10° C | 94% | 1009.4 hPa | 0 mm | - | 0 W/m² | - |
| 1778125677 | 10° C | 94% | 1009.1 hPa | 0 mm | - | 0 W/m² | - |
* Rain latest hour (hover to see other rain measurements)
** Current wind speed in m/s (hover to see current wind gust speed)